This is the latest recevied weather packets stored in our database for station/object VK6WB. If no packets are shown the sender has not sent any weather packets the latest 10 day(s).
| Time | Temp. | Humidity | Pressure | Rain* | Wind** | Luminosity | Snow |
|---|---|---|---|---|---|---|---|
| 1777998605 | 14.44° C | 52% | 1022.4 hPa | 0 mm | - | 841 W/m² | - |
| 1777998005 | 14.44° C | 50% | 1022.4 hPa | 0 mm | - | 841 W/m² | - |
| 1777997406 | 15° C | 49% | 1022.3 hPa | 0 mm | - | 841 W/m² | - |
| 1777996806 | 15° C | 47% | 1022.3 hPa | 0 mm | - | 789 W/m² | - |
| 1777996205 | 15° C | 46% | 1022.4 hPa | 0 mm | - | 738 W/m² | - |
| 1777995605 | 15° C | 46% | 1022.4 hPa | 0 mm | - | 789 W/m² | - |
| 1777995005 | 15° C | 45% | 1022.4 hPa | 0 mm | - | 738 W/m² | - |
| 1777994406 | 14.44° C | 48% | 1022.4 hPa | 0 mm | - | 634 W/m² | - |
| 1777993805 | 14.44° C | 51% | 1022.2 hPa | 0 mm | - | 634 W/m² | - |
| 1777993205 | 15° C | 51% | 1022.2 hPa | 0 mm | - | 634 W/m² | - |
| 1777992605 | 15° C | 50% | 1022.2 hPa | 0 mm | - | 634 W/m² | - |
| 1777992005 | 15° C | 50% | 1022.3 hPa | 0 mm | - | 634 W/m² | - |
| 1777991405 | 15.56° C | 50% | 1022.3 hPa | 0 mm | - | 634 W/m² | - |
| 1777990805 | 15° C | 54% | 1022.5 hPa | 0 mm | - | 634 W/m² | - |
| 1777989605 | 15.56° C | 56% | 1022.5 hPa | 0 mm | - | 634 W/m² | - |
| 1777989004 | 15° C | 57% | 1022.4 hPa | 0 mm | - | 583 W/m² | - |
| 1777988405 | 15.56° C | 57% | 1022.3 hPa | 0 mm | - | 531 W/m² | - |
| 1777987805 | 15.56° C | 57% | 1022.3 hPa | 0 mm | - | 531 W/m² | - |
| 1777987205 | 15.56° C | 58% | 1022.4 hPa | 0 mm | - | 531 W/m² | - |
| 1777986605 | 15.56° C | 59% | 1022.4 hPa | 0 mm | - | 531 W/m² | - |
| 1777986005 | 15.56° C | 60% | 1022.4 hPa | 0 mm | - | 531 W/m² | - |
| 1777985405 | 16.11° C | 59% | 1022.2 hPa | 0 mm | - | 531 W/m² | - |
| 1777984805 | 16.11° C | 59% | 1022.2 hPa | 0 mm | - | 531 W/m² | - |
| 1777984205 | 16.11° C | 59% | 1022.3 hPa | 0 mm | - | 479 W/m² | - |
| 1777983605 | 16.11° C | 59% | 1022.1 hPa | 0 mm | - | 428 W/m² | - |
* Rain latest hour (hover to see other rain measurements)
** Current wind speed in m/s (hover to see current wind gust speed)